Time,TemperatureF,DewpointF,PressureIn,WindDirection,WindDirectionDegrees,WindSpeedMPH,WindSpeedGustMPH,Humidity,HourlyPrecipIn,Conditions,Clouds,dailyrainin,SolarRadiationWatts/m^2,SoftwareType,DateUTC
2013-01-27 00:21:00,-13.0,-18.0,-100.00,SE,141,0.0,0.0,76,0.00,,,0.00,0.000000,,2013-01-27 09:21:00,
2013-01-27 00:32:00,-13.0,-18.0,-100.00,SE,141,0.0,0.0,76,0.00,,,0.00,0.000000,,2013-01-27 09:32:00,
2013-01-27 00:41:00,-13.0,-18.0,-100.00,SE,141,0.0,0.0,76,0.00,,,0.00,0.000000,,2013-01-27 09:41:00,
2013-01-27 00:51:00,-13.0,-18.0,-100.00,SE,141,0.0,0.0,76,0.00,,,0.00,0.000000,,2013-01-27 09:51:00,
2013-01-27 01:21:00,-11.0,-17.0,-100.00,WSW,243,2.0,4.0,75,0.00,,,0.00,0.000000,,2013-01-27 10:21:00,
2013-01-27 01:31:00,-11.0,-17.0,-100.00,WSW,243,2.0,4.0,75,0.00,,,0.00,0.000000,,2013-01-27 10:31:00,
2013-01-27 01:41:00,-11.0,-17.0,-100.00,WSW,243,2.0,4.0,75,0.00,,,0.00,0.000000,,2013-01-27 10:41:00,
2013-01-27 01:51:00,-11.0,-17.0,-100.00,WSW,243,2.0,4.0,75,0.00,,,0.00,0.000000,,2013-01-27 10:51:00,
2013-01-27 02:21:00,-13.0,-19.0,-100.00,SW,218,0.0,4.0,75,0.00,,,0.00,0.000000,,2013-01-27 11:21:00,
2013-01-27 02:32:00,-13.0,-19.0,-100.00,SW,218,0.0,4.0,75,0.00,,,0.00,0.000000,,2013-01-27 11:32:00,
2013-01-27 02:42:00,-13.0,-19.0,-100.00,SW,218,0.0,4.0,75,0.00,,,0.00,0.000000,,2013-01-27 11:42:00,
2013-01-27 02:52:00,-13.0,-19.0,-100.00,SW,218,0.0,4.0,75,0.00,,,0.00,0.000000,,2013-01-27 11:52:00,
2013-01-27 03:21:00,-18.0,-24.0,-100.00,SW,218,0.0,2.0,74,0.00,,,0.00,0.000000,,2013-01-27 12:21:00,
2013-01-27 03:32:00,-18.0,-24.0,-100.00,SW,218,0.0,2.0,74,0.00,,,0.00,0.000000,,2013-01-27 12:32:00,
2013-01-27 05:22:00,-24.0,-30.0,-100.00,South,171,0.0,1.0,72,-99.99,,,0.00,0.000000,,2013-01-27 14:22:00,
2013-01-27 06:22:00,-19.0,-25.0,-100.00,SSW,197,0.0,1.0,73,-99.99,,,0.00,0.000000,,2013-01-27 15:22:00,
2013-01-27 07:21:00,-16.0,-22.0,-100.00,ENE,70,0.0,1.0,74,-99.99,,,0.00,0.000000,,2013-01-27 16:21:00,
2013-01-27 07:32:00,-16.0,-22.0,-100.00,ENE,70,0.0,1.0,74,-99.99,,,0.00,0.000000,,2013-01-27 16:32:00,
2013-01-27 07:42:00,-16.0,-22.0,-100.00,ENE,70,0.0,1.0,74,-99.99,,,0.00,0.000000,,2013-01-27 16:42:00,
2013-01-27 07:52:00,-16.0,-22.0,-100.00,ENE,70,0.0,1.0,74,-99.99,,,0.00,0.000000,,2013-01-27 16:52:00,
2013-01-27 08:21:00,-15.0,-21.0,-100.00,NNE,20,0.0,0.0,74,0.00,,,-99.99,0.000000,,2013-01-27 17:21:00,
2013-01-27 08:32:00,-15.0,-21.0,-100.00,NNE,20,0.0,0.0,74,0.00,,,-99.99,0.000000,,2013-01-27 17:32:00,
2013-01-27 08:42:00,-15.0,-21.0,-100.00,NNE,20,0.0,0.0,74,0.00,,,-99.99,0.000000,,2013-01-27 17:42:00,
2013-01-27 08:52:00,-15.0,-21.0,-100.00,NNE,20,0.0,0.0,74,0.00,,,-99.99,0.000000,,2013-01-27 17:52:00,
2013-01-27 09:22:00,-15.0,-21.0,-100.00,NE,36,0.0,1.0,74,0.00,,,0.00,0.000000,,2013-01-27 18:22:00,
2013-01-27 09:32:00,-15.0,-21.0,-100.00,NE,36,0.0,1.0,74,0.00,,,0.00,0.000000,,2013-01-27 18:32:00,
2013-01-27 09:42:00,-15.0,-21.0,-100.00,NE,36,0.0,1.0,74,0.00,,,0.00,0.000000,,2013-01-27 18:42:00,
2013-01-27 09:51:00,-15.0,-21.0,-100.00,NE,36,0.0,1.0,74,0.00,,,0.00,0.000000,,2013-01-27 18:51:00,
2013-01-27 10:22:00,-13.0,-19.0,-100.00,SW,233,1.0,3.0,73,0.00,,,0.00,1.000000,,2013-01-27 19:22:00,
2013-01-27 10:32:00,-13.0,-19.0,-100.00,SW,233,1.0,3.0,73,0.00,,,0.00,1.000000,,2013-01-27 19:32:00,
2013-01-27 10:41:00,-13.0,-19.0,-100.00,SW,233,1.0,3.0,73,0.00,,,0.00,1.000000,,2013-01-27 19:41:00,
2013-01-27 10:51:00,-13.0,-19.0,-100.00,SW,233,1.0,3.0,73,0.00,,,0.00,1.000000,,2013-01-27 19:51:00,
2013-01-27 11:22:00,-12.0,-19.0,-100.00,WSW,242,1.0,3.0,71,0.00,,,0.00,6.000000,,2013-01-27 20:22:00,
2013-01-27 11:32:00,-12.0,-19.0,-100.00,WSW,242,1.0,3.0,71,0.00,,,0.00,6.000000,,2013-01-27 20:32:00,
2013-01-27 11:42:00,-12.0,-19.0,-100.00,WSW,242,1.0,3.0,71,0.00,,,0.00,6.000000,,2013-01-27 20:42:00,
2013-01-27 11:52:00,-12.0,-19.0,-100.00,WSW,242,1.0,3.0,71,0.00,,,0.00,6.000000,,2013-01-27 20:52:00,
2013-01-27 12:22:00,-12.0,-19.0,-100.00,West,260,2.0,9.0,69,0.00,,,0.00,11.000000,,2013-01-27 21:22:00,
2013-01-27 12:32:00,-12.0,-19.0,-100.00,West,260,2.0,9.0,69,0.00,,,0.00,11.000000,,2013-01-27 21:32:00,
2013-01-27 12:42:00,-12.0,-19.0,-100.00,West,260,2.0,9.0,69,0.00,,,0.00,11.000000,,2013-01-27 21:42:00,
2013-01-27 12:52:00,-12.0,-19.0,-100.00,West,260,2.0,9.0,69,0.00,,,0.00,11.000000,,2013-01-27 21:52:00,
2013-01-27 13:21:00,-12.0,-20.0,-100.00,WSW,253,3.0,6.0,65,0.00,,,0.00,16.000000,,2013-01-27 22:21:00,
2013-01-27 13:32:00,-12.0,-20.0,-100.00,WSW,253,3.0,6.0,65,0.00,,,0.00,16.000000,,2013-01-27 22:32:00,
2013-01-27 13:42:00,-12.0,-20.0,-100.00,WSW,253,3.0,6.0,65,0.00,,,0.00,16.000000,,2013-01-27 22:42:00,
2013-01-27 13:51:00,-12.0,-20.0,-100.00,WSW,253,3.0,6.0,65,0.00,,,0.00,16.000000,,2013-01-27 22:51:00,
2013-01-27 14:11:00,-10.0,-20.0,-100.00,NNW,334,1.0,4.0,60,0.00,,,0.00,25.000000,,2013-01-27 23:11:00,
2013-01-27 14:21:00,-10.0,-20.0,-100.00,NNW,334,1.0,4.0,60,0.00,,,0.00,25.000000,,2013-01-27 23:21:00,
2013-01-27 14:32:00,-10.0,-20.0,-100.00,NNW,334,1.0,4.0,60,0.00,,,0.00,25.000000,,2013-01-27 23:32:00,
2013-01-27 14:41:00,-10.0,-20.0,-100.00,NNW,334,1.0,4.0,60,0.00,,,0.00,25.000000,,2013-01-27 23:41:00,
2013-01-27 14:52:00,-10.0,-20.0,-100.00,NNW,334,1.0,4.0,60,0.00,,,0.00,25.000000,,2013-01-27 23:52:00,
2013-01-27 15:21:00,-11.0,-19.0,-100.00,North,358,0.0,2.0,68,0.00,,,0.00,14.000000,,2013-01-28 00:21:00,
2013-01-27 15:32:00,-11.0,-19.0,-100.00,North,358,0.0,2.0,68,0.00,,,0.00,14.000000,,2013-01-28 00:32:00,
2013-01-27 15:41:00,-11.0,-19.0,-100.00,North,358,0.0,2.0,68,0.00,,,0.00,14.000000,,2013-01-28 00:41:00,
2013-01-27 15:51:00,-11.0,-19.0,-100.00,North,358,0.0,2.0,68,0.00,,,0.00,14.000000,,2013-01-28 00:51:00,
2013-01-27 16:21:00,-12.0,-19.0,-100.00,NNW,329,1.0,2.0,70,0.00,,,0.00,7.000000,,2013-01-28 01:21:00,
2013-01-27 16:32:00,-12.0,-19.0,-100.00,NNW,329,1.0,2.0,70,0.00,,,0.00,7.000000,,2013-01-28 01:32:00,
2013-01-27 16:42:00,-12.0,-19.0,-100.00,NNW,329,1.0,2.0,70,0.00,,,0.00,7.000000,,2013-01-28 01:42:00,
2013-01-27 16:51:00,-12.0,-19.0,-100.00,NNW,329,1.0,2.0,70,0.00,,,0.00,7.000000,,2013-01-28 01:51:00,
2013-01-27 17:21:00,-13.0,-19.0,-100.00,South,181,0.0,3.0,73,0.00,,,0.00,1.000000,,2013-01-28 02:21:00,
2013-01-27 17:32:00,-13.0,-19.0,-100.00,South,181,0.0,3.0,73,0.00,,,0.00,1.000000,,2013-01-28 02:32:00,
2013-01-27 17:41:00,-13.0,-19.0,-100.00,South,181,0.0,3.0,73,0.00,,,0.00,1.000000,,2013-01-28 02:41:00,
2013-01-27 17:52:00,-13.0,-19.0,-100.00,South,181,0.0,3.0,73,0.00,,,0.00,1.000000,,2013-01-28 02:52:00,
2013-01-27 18:21:00,-15.0,-21.0,-100.00,South,177,0.0,1.0,73,0.00,,,0.00,0.000000,,2013-01-28 03:21:00,
2013-01-27 18:32:00,-15.0,-21.0,-100.00,South,177,0.0,1.0,73,0.00,,,0.00,0.000000,,2013-01-28 03:32:00,
2013-01-27 18:41:00,-15.0,-21.0,-100.00,South,177,0.0,1.0,73,0.00,,,0.00,0.000000,,2013-01-28 03:41:00,
2013-01-27 18:52:00,-15.0,-21.0,-100.00,South,177,0.0,1.0,73,0.00,,,0.00,0.000000,,2013-01-28 03:52:00,
2013-01-27 19:21:00,-18.0,-24.0,-100.00,North,11,0.0,1.0,74,0.00,,,0.00,0.000000,,2013-01-28 04:21:00,
2013-01-27 19:32:00,-18.0,-24.0,-100.00,North,11,0.0,1.0,74,0.00,,,0.00,0.000000,,2013-01-28 04:32:00,
2013-01-27 19:41:00,-18.0,-24.0,-100.00,North,11,0.0,1.0,74,0.00,,,0.00,0.000000,,2013-01-28 04:41:00,
2013-01-27 19:52:00,-18.0,-24.0,-100.00,North,11,0.0,1.0,74,0.00,,,0.00,0.000000,,2013-01-28 04:52:00,
2013-01-27 20:21:00,-21.0,-27.0,-100.00,ESE,121,0.0,1.0,73,0.00,,,0.00,0.000000,,2013-01-28 05:21:00,
2013-01-27 20:31:00,-21.0,-27.0,-100.00,ESE,121,0.0,1.0,73,0.00,,,0.00,0.000000,,2013-01-28 05:31:00,
2013-01-27 20:41:00,-21.0,-27.0,-100.00,ESE,121,0.0,1.0,73,0.00,,,0.00,0.000000,,2013-01-28 05:41:00,
2013-01-27 20:52:00,-21.0,-27.0,-100.00,ESE,121,0.0,1.0,73,0.00,,,0.00,0.000000,,2013-01-28 05:52:00,
2013-01-27 21:21:00,-24.0,-30.0,-100.00,SSW,210,0.0,1.0,72,0.00,,,0.00,0.000000,,2013-01-28 06:21:00,
2013-01-27 21:32:00,-24.0,-30.0,-100.00,SSW,210,0.0,1.0,72,0.00,,,0.00,0.000000,,2013-01-28 06:32:00,
2013-01-27 21:42:00,-24.0,-30.0,-100.00,SSW,210,0.0,1.0,72,0.00,,,0.00,0.000000,,2013-01-28 06:42:00,
2013-01-27 21:52:00,-24.0,-30.0,-100.00,SSW,210,0.0,1.0,72,0.00,,,0.00,0.000000,,2013-01-28 06:52:00,
2013-01-27 22:21:00,-25.0,-31.0,-100.00,SW,214,0.0,1.0,71,0.00,,,0.00,0.000000,,2013-01-28 07:21:00,
2013-01-27 22:31:00,-25.0,-31.0,-100.00,SW,214,0.0,1.0,71,0.00,,,0.00,0.000000,,2013-01-28 07:31:00,
2013-01-27 22:41:00,-25.0,-31.0,-100.00,SW,214,0.0,1.0,71,0.00,,,0.00,0.000000,,2013-01-28 07:41:00,
2013-01-27 22:51:00,-25.0,-31.0,-100.00,SW,214,0.0,1.0,71,0.00,,,0.00,0.000000,,2013-01-28 07:51:00,
2013-01-27 23:21:00,-26.0,-32.0,-100.00,South,178,0.0,5.0,71,0.00,,,0.00,0.000000,,2013-01-28 08:21:00,
2013-01-27 23:32:00,-26.0,-32.0,-100.00,South,178,0.0,5.0,71,0.00,,,0.00,0.000000,,2013-01-28 08:32:00,
2013-01-27 23:42:00,-26.0,-32.0,-100.00,South,178,0.0,5.0,71,0.00,,,0.00,0.000000,,2013-01-28 08:42:00,
2013-01-27 23:52:00,-26.0,-32.0,-100.00,South,178,0.0,5.0,71,0.00,,,0.00,0.000000,,2013-01-28 08:52:00,